Regional Weather Roundup
Issued by NWS

Home | Current Version | Previous Version | Text Only | Print | Product List | Glossary Off
Versions: 1 2 3 4 5 6 7 8 9 10 11 12 13 14 15 16 17 18 19 20 21 22 23 24 25 26 27 28 29 30 31 32 33 34 35 36 37 38 39 40 41 42 43 44 45 46 47 48 49 50

000
ASUS43 KIND 260709
RWRIN

WEATHER ROUNDUP FOR INDIANA
NATIONAL WEATHER SERVICE INDIANAPOLIS IN
200 AM EST FRI DEC 26 2014

NOTE: "FAIR" INDICATES FEW OR NO CLOUDS BELOW 12,000 FEET WITH NO
SIGNIFICANT WEATHER AND/OR OBSTRUCTIONS TO VISIBILITY.

* - STATION DOES NOT REPORT WEATHER SUCH AS PRECIPITATION OR FOG.

+ - STATION NOT QUALITY CONTROLLED BY THE NATIONAL WEATHER SERVICE.
    USE DATA WITH CAUTION...ESPECIALLY DEWPOINT AND RELATIVE
    HUMIDITY OBSERVATIONS.

INZ001>003-010>013-019-020-260800-
NORTHWEST INDIANA

CITY           SKY/WX    TMP DP  RH WIND       PRES   REMARKS
GARY /AIRPORT/ PTCLDY    39  31  72 S10       30.04F
KNOX *+        PTCLDY    35  29  80 S10       30.07S WCI  27
LA PORTE +     MOCLDY    37  33  89 S9        30.06F
MICHIGAN CITY+ MOCLDY    36  30  80 S9G17     30.05F
MONTICELLO +   CLEAR     36  32  87 S6        30.08S
RENSSELAER +   CLEAR     34  34 100 S9        30.07S WCI  26
VALPARAISO     PTCLDY    34  31  88 S8        30.06S WCI  27

$$

LMZ046-743>745-260800-
SOUTHERN LAKE MICHIGAN

STATION/POSITION TIME  TEMP WIND        PRES
                       AIR  DIR/SP/G
                 (UTC) (F)  (DEG/KT/KT) (MB)
MICHIGAN CITY    0700   38  160/ 16/ 21   N/A

$$

INZ004-005-014>016-021>024-260800-
NORTH CENTRAL INDIANA

CITY           SKY/WX    TMP DP  RH WIND       PRES   REMARKS
GOSHEN         PTCLDY    35  31  85 S10       30.09R WCI  27
LOGANSPORT +   CLEAR     34  30  86 S9        30.11S WCI  26
PERU/GRISSOM   CLEAR     35  35 100 S8        30.10R WCI  28
ROCHESTER +    FAIR      37  34  87 S8        30.10S
SOUTH BEND     NOT AVBL
WARSAW +       CLEAR     32  32 100 S5        30.09S WCI  27

$$

INZ006>009-017-018-025>027-260800-
NORTHEAST INDIANA

CITY           SKY/WX    TMP DP  RH WIND       PRES   REMARKS
ANGOLA *+      CLEAR     34  30  86 S7        30.09F WCI  28
AUBURN +       CLEAR     34  30  86 S6        30.12S WCI  29
FORT WAYNE     CLEAR     32  30  92 S7        30.13S WCI  26
HUNTINGTON +   CLEAR     34  32  92 S7        30.12S WCI  28

$$

INZ028-029-035-036-043>045-051>053-260800-
WEST CENTRAL INDIANA

CITY           SKY/WX    TMP DP  RH WIND       PRES   REMARKS
GREENCASTLE +  CLEAR     32  28  86 S6        30.13R WCI  26
LAFAYETTE      CLEAR     34  30  85 S5        30.10R WCI  30
TERRE HAUTE    CLEAR     36  31  82 S8        30.13R

$$

INZ030>032-037>040-046>048-054>057-064-065-260800-
CENTRAL INDIANA

CITY           SKY/WX    TMP DP  RH WIND       PRES   REMARKS
CP ATTERBURY + CLEAR     32  32 100 MISG      30.15S
FRANKFORT +    CLEAR     33  33 100 SE6       30.12R WCI  27
GREENWOOD *+   CLEAR     32  28  86 SE5       30.15  WCI  27
INDIANAPOLIS   CLEAR     31  29  92 SE8       30.12R WCI  23
-EAGLE CREEK   CLEAR     32  29  88 S3        30.12R
KOKOMO *+      CLEAR     36  30  80 S12       30.12R
MARION +       CLEAR     33  31  91 S8        30.14R WCI  26
MT COMFORT *+  CLEAR     34  34 100 S8        30.13S WCI  27
SHELBYVILLE    CLEAR     35  30  82 S5        30.14R WCI  31
ZIONSVILLE +   CLEAR     33  30  86 S7        30.13R WCI  27

$$

INZ033-034-041-042-049-050-058-059-260800-
EAST CENTRAL INDIANA

CITY           SKY/WX    TMP DP  RH WIND       PRES   REMARKS
MUNCIE         CLEAR     35  31  85 S8        30.14R WCI  29

$$

INZ060-061-067>069-081>083-085>088-260800-
SOUTHWEST INDIANA

CITY           SKY/WX    TMP DP  RH WIND       PRES   REMARKS
EVANSVILLE     MOCLDY    42  34  73 S8        30.16S
HUNTINGBURG *+ PTCLDY    37  30  75 S12       30.17S
WASHINGTON +   CLEAR     36  31  83 S6        30.15R

$$

INZ062-063-066-070>080-084-089>092-260800-
SOUTH CENTRAL AND SOUTHEAST INDIANA

CITY           SKY/WX    TMP DP  RH WIND       PRES   REMARKS
BLOOMINGTON    CLEAR     32  30  92 SE6       30.14R WCI  26

$$



USA.gov is the U.S. government's official web portal to all federal, state and local government web resources and services.